[[{"header":{"parameterUnit":"m.s-1","parameterCategory":1,"la1":30.2991,"la2":30.254,"lo1":-89.0895,"lo2":-89.0444,"dy":0.0017,"dx":0.0017,"nx":28,"ny":28,"refTime":"2025-12-25T03:00:00:Z","depth":0,"parameterNumber":2,"parameterNumberName":"U-component_of_WINDS"},"data":[0,0,0,0,0,0,0,0,0,0,0,0,0,0,0,0,0,0,0,0,0,0,0,0,0,0,0,0,0,0,0,0,0,0,0,0,0,0,0,0,0,0,0,0,0,0,0,0,0,0,0,0,0,0,0,0,0,0,0.8474,0.8475,0,0.8565,0.8566,0.8567,0.8586,0.8585,0.8585,0.8584,0.868,0.8683,0.8686,0,0,0,0,0,0,0,0,0,0,0,0,0,0.8319,0.8322,0.8474,0.8475,0.8476,0.8565,0.8566,0.8567,0.8586,0.8585,0.8585,0.8584,0.8679,0.8683,0.8687,0,0,0,0,0,0,0,0,0,0,0,0,0,0.8396,0.8323,0.8473,0.8496,0.8499,0.8564,0.8566,0.8567,0.8586,0.8585,0.8584,0.8583,0.8678,0.8683,0.8687,0.8737,0,0,0.8702,0.8704,0,0,0,0,0,0,0,0,0.8392,0.8402,0.8492,0.8495,0.8498,0.8563,0.8547,0.8624,0.8587,0.8553,0.8584,0.8583,0.8642,0.865,0.8669,0.8742,0.8746,0.8702,0.8705,0.8707,0.8709,0,0,0,0,0,0,0,0.8386,0.8398,0.851,0.8493,0.8497,0.8503,0.8512,0.8561,0.8603,0.8556,0.8558,0.8568,0.8644,0.8665,0.8672,0.8747,0.8702,0.8706,0.8709,0.8711,0.8866,0.8867,0,0,0,0,0,0,0.8377,0.8393,0.8507,0.8512,0.8441,0.8506,0.8517,0.8543,0.8602,0.861,0.8569,0.8569,0.8657,0.8666,0.8675,0.8738,0.8707,0.8712,0.8714,0.8865,0.8866,0.8868,0,0,0,0,0,0,0.8373,0.8386,0.8503,0.8453,0.8469,0.851,0.8539,0.8546,0.8566,0.8612,0.8619,0.8582,0.8656,0.8668,0.8722,0.8741,0.8714,0.8718,0.8864,0.8865,0.8867,0.8863,0,0,0,0,0,0,0.8369,0.8385,0.8404,0.8454,0.8471,0.8547,0.854,0.8548,0.8574,0.8575,0.8626,0.8634,0.8657,0.8714,0.8726,0.8748,0.8722,0.8862,0.8864,0.8867,0.8862,0.8865,0.8867,0,0,0,0,0,0.8363,0.8399,0.8405,0.8418,0.8495,0.8548,0.8558,0.8583,0.8576,0.8595,0.8625,0.8632,0.8737,0.872,0.8733,0.8756,0.8861,0.8864,0.8866,0.8861,0.8864,0.8867,0,0,0,0,0,0,0.8352,0.8406,0.8413,0.8466,0.8502,0.8551,0.8577,0.8586,0.8626,0.8625,0.8654,0.8666,0.8717,0.8742,0.8722,0.8808,0.8799,0.8805,0.879,0.8794,0.8796,0.8789,0.8726,0,0,0,0,0,0.8355,0.8393,0.8439,0.8482,0.85,0.8535,0.8559,0.8575,0.8614,0.8629,0.8663,0.8701,0.8743,0.877,0.8811,0.8866,0.8878,0.8888,0.8891,0.8893,0.8898,0.8929,0.8935,0.8877,0.8877,0.8877,0,0,0.8363,0.8398,0.842,0.848,0.851,0.8549,0.8548,0.8589,0.8619,0.8636,0.8688,0.8714,0.8759,0.8813,0.8839,0.8836,0.8916,0.8897,0.8898,0.8902,0.8933,0.8938,0.8943,0.8879,0.8879,0.8878,0,0,0.8398,0.8427,0.8466,0.8496,0.8541,0.8565,0.8574,0.8622,0.864,0.8692,0.8706,0.8743,0.8814,0.8845,0.887,0.8918,0.8927,0.893,0.8945,0.8975,0.898,0.8984,0.9001,0.9007,0.8935,0.8935,0.8935,0,0.8402,0.8461,0.8486,0.8526,0.8553,0.857,0.861,0.8638,0.8695,0.8713,0.8709,0.8798,0.883,0.8892,0.8904,0.8924,0.8936,0.8924,0.8977,0.8981,0.8986,0.9002,0.9009,0.8935,0.8935,0.8935,0.8935,0,0.8464,0.8505,0.8531,0.8584,0.8614,0.8655,0.8686,0.8714,0.8727,0.8751,0.8805,0.8844,0.8893,0.8909,0.8923,0.8974,0.897,0.8971,0.8962,0.8991,0.9007,0.9014,0.8935,0.8935,0.8935,0.8935,0,0,0.8494,0.856,0.857,0.8594,0.8646,0.8678,0.872,0.8767,0.879,0.8829,0.8865,0.8925,0.8926,0.8955,0.8972,0.8999,0.9035,0.8997,0.8998,0.9003,0.9094,0.9093,0.91,0.9041,0.9042,0.9043,0.909,0,0.8535,0.8608,0.8632,0.8694,0.8733,0.8749,0.8786,0.8822,0.8846,0.8883,0.891,0.8952,0.895,0.8967,0.8995,0.9024,0.9053,0.9022,0.9076,0.9077,0.9064,0.9108,0.9107,0.9149,0.9096,0.9098,0.9098,0,0.8592,0.8631,0.8696,0.8743,0.876,0.8792,0.8838,0.8873,0.8914,0.893,0.8962,0.8978,0.9023,0.9012,0.9075,0.9053,0.9077,0.9095,0.9097,0.9103,0.9089,0.9115,0.9163,0.9169,0.9109,0.9108,0.9107,0,0.8607,0.8676,0.8724,0.8745,0.88,0.8823,0.8847,0.8888,0.8915,0.8955,0.8973,0.9019,0.9043,0.9079,0.9107,0.9096,0.9168,0.9159,0.9183,0.9182,0.9197,0.9195,0.9249,0.9212,0.9212,0.9212,0.9212,0,0.865,0.869,0.8732,0.8761,0.8806,0.8834,0.8878,0.8904,0.894,0.8975,0.8993,0.9027,0.9061,0.91,0.9122,0.9171,0.9182,0.9197,0.9202,0.9195,0.9193,0.9211,0.9209,0.9214,0.9213,0.9213,0.9213,0,0.8675,0.8704,0.8758,0.8806,0.8819,0.8851,0.8893,0.8923,0.8947,0.8992,0.9005,0.9044,0.909,0.9121,0.918,0.9195,0.9249,0.9254,0.9234,0.9237,0.9259,0.9257,0.9326,0.9337,0.9292,0.9293,0.9293,0,0.87,0.8731,0.8782,0.8807,0.8831,0.8871,0.8899,0.8928,0.8956,0.9006,0.903,0.9077,0.9116,0.9189,0.9223,0.9269,0.9275,0.9296,0.9282,0.9274,0.9276,0.9273,0.9277,0.9298,0.9299,0.9299,0.9299,0,0.8742,0.8755,0.8794,0.8838,0.887,0.8907,0.8943,0.8963,0.8998,0.9029,0.9076,0.9106,0.9166,0.9213,0.9262,0.9288,0.93,0.9303,0.9311,0.9304,0.9292,0.9299,0.924,0.9302,0.9301,0.9301,0.9301,0.9301,0.8768,0.8796,0.8837,0.888,0.891,0.8944,0.8974,0.9003,0.9042,0.9093,0.9108,0.9156,0.9198,0.9265,0.9292,0.9331,0.933,0.9341,0.9344,0.9346,0.9346,0.9286,0.934,0.934,0.934,0.934,0.934,0,0.8811,0.8838,0.8877,0.8927,0.8961,0.8969,0.901,0.9038,0.908,0.9118,0.9155,0.921,0.9255,0.9293,0.934,0.9364,0.9371,0.9376,0.9374,0.938,0.9345,0.9333,0.937,0.937,0.937,0.937,0.937,0.937,0.8837,0.8886,0.8904,0.8968,0.8995,0.9042,0.9065,0.9096,0.9126,0.9186,0.9223,0.9247,0.9286,0.9336,0.9378,0.9388,0.9405,0.9409,0.942,0.9386,0.9383,0.938,0.9369,0.9412,0.9412,0.9452,0.9452,0.9453]},{"header":{"parameterUnit":"m.s-1","parameterCategory":1,"la1":30.2991,"la2":30.254,"lo1":-89.0895,"lo2":-89.0444,"dy":0.0017,"dx":0.0017,"nx":28,"ny":28,"refTime":"2025-12-25T03:00:00:Z","depth":0,"parameterNumber":3,"parameterNumberName":"V-component_of_WINDS"},"data":[0,0,0,0,0,0,0,0,0,0,0,0,0,0,0,0,0,0,0,0,0,0,0,0,0,0,0,0,0,0,0,0,0,0,0,0,0,0,0,0,0,0,0,0,0,0,0,0,0,0,0,0,0,0,0,0,0,0,0.9166,0.9166,0,0.9153,0.9153,0.9153,0.9158,0.9159,0.9159,0.9159,0.9144,0.9143,0.9142,0,0,0,0,0,0,0,0,0,0,0,0,0,0.9191,0.919,0.9166,0.9166,0.9165,0.9153,0.9153,0.9153,0.9158,0.9159,0.9159,0.9159,0.9144,0.9143,0.9142,0,0,0,0,0,0,0,0,0,0,0,0,0,0.9179,0.919,0.9166,0.9167,0.9167,0.9153,0.9153,0.9153,0.9158,0.9159,0.9159,0.916,0.9144,0.9143,0.9142,0.9126,0,0,0.9139,0.9139,0,0,0,0,0,0,0,0,0.918,0.9178,0.9167,0.9167,0.9167,0.9158,0.9156,0.9144,0.9158,0.9161,0.9159,0.916,0.9148,0.9147,0.9143,0.9126,0.9125,0.9139,0.9138,0.9138,0.9138,0,0,0,0,0,0,0,0.9181,0.9179,0.9161,0.9166,0.9166,0.9167,0.9166,0.9154,0.9152,0.9161,0.9161,0.916,0.9148,0.9144,0.9143,0.9125,0.9139,0.9138,0.9137,0.9137,0.9092,0.9091,0,0,0,0,0,0,0.9182,0.918,0.9161,0.916,0.9175,0.9166,0.9165,0.916,0.9152,0.9152,0.916,0.916,0.9146,0.9144,0.9142,0.9122,0.9138,0.9137,0.9136,0.9093,0.9092,0.9091,0,0,0,0,0,0,0.9183,0.918,0.9162,0.917,0.9168,0.9165,0.916,0.916,0.9156,0.9151,0.9151,0.9156,0.9146,0.9144,0.913,0.9122,0.9136,0.9135,0.9093,0.9092,0.9092,0.9083,0,0,0,0,0,0,0.9183,0.918,0.9175,0.917,0.9167,0.9151,0.9159,0.9159,0.9154,0.9155,0.9148,0.9147,0.9146,0.9132,0.9129,0.9121,0.9135,0.9094,0.9093,0.9092,0.9084,0.9082,0.908,0,0,0,0,0,0.9184,0.9173,0.9175,0.9173,0.9161,0.915,0.9149,0.9149,0.9154,0.9148,0.9145,0.9147,0.9123,0.913,0.9127,0.9118,0.9094,0.9093,0.9092,0.9084,0.9082,0.908,0,0,0,0,0,0,0.9177,0.9172,0.9174,0.9162,0.9156,0.9151,0.9144,0.9146,0.9139,0.9139,0.9139,0.9137,0.9123,0.9119,0.9127,0.9102,0.9109,0.9108,0.9105,0.9102,0.91,0.9101,0.9134,0,0,0,0,0,0.9174,0.9166,0.9163,0.9151,0.9149,0.9147,0.9142,0.9142,0.9137,0.9134,0.913,0.9123,0.9114,0.9108,0.91,0.9083,0.9081,0.9075,0.9074,0.9072,0.907,0.906,0.9057,0.9087,0.9087,0.9087,0,0,0.9167,0.9164,0.9159,0.915,0.9146,0.9137,0.9145,0.9136,0.9129,0.9133,0.9119,0.9116,0.9108,0.9093,0.9086,0.909,0.9061,0.907,0.9069,0.9068,0.9058,0.9055,0.9053,0.9086,0.9086,0.9087,0,0,0.9151,0.9148,0.9138,0.9134,0.9128,0.9126,0.9124,0.9118,0.9116,0.9103,0.9106,0.9097,0.9081,0.9076,0.9071,0.9051,0.9052,0.9048,0.9038,0.9027,0.9025,0.9023,0.9015,0.9012,0.9046,0.9046,0.9046,0,0.9143,0.9131,0.9132,0.9122,0.9118,0.9121,0.911,0.9106,0.9097,0.9093,0.9097,0.9077,0.9073,0.9055,0.905,0.9047,0.9043,0.9049,0.9026,0.9023,0.9021,0.9013,0.901,0.9045,0.9046,0.9046,0.9046,0,0.9121,0.9113,0.9105,0.9097,0.9091,0.9081,0.9079,0.9073,0.9074,0.9072,0.9057,0.9052,0.9042,0.9038,0.9038,0.902,0.9022,0.9026,0.9033,0.9018,0.901,0.9007,0.9045,0.9045,0.9045,0.9045,0,0,0.91,0.9092,0.9089,0.9085,0.9078,0.9071,0.9061,0.9051,0.9045,0.9039,0.9029,0.9015,0.9019,0.9013,0.9012,0.9004,0.8987,0.9008,0.9008,0.9004,0.8965,0.8961,0.8958,0.8988,0.8987,0.8987,0.8965,0,0.9082,0.9064,0.9065,0.9047,0.9039,0.9042,0.9032,0.9026,0.9024,0.9015,0.9011,0.9001,0.9007,0.9004,0.8995,0.8991,0.8979,0.8992,0.8977,0.8977,0.8978,0.8954,0.8951,0.893,0.8962,0.8962,0.8961,0,0.9059,0.9052,0.9035,0.9028,0.9025,0.9016,0.9007,0.8999,0.8992,0.899,0.8984,0.8984,0.8972,0.898,0.8961,0.8971,0.8964,0.8961,0.896,0.8958,0.8968,0.895,0.8924,0.892,0.8957,0.8957,0.8957,0,0.9044,0.903,0.9018,0.9014,0.9007,0.9001,0.8997,0.899,0.8984,0.8976,0.8972,0.8962,0.8956,0.8947,0.8944,0.8951,0.8926,0.8934,0.8923,0.8923,0.8917,0.8917,0.8888,0.8914,0.8914,0.8914,0.8914,0,0.9024,0.9013,0.9011,0.9003,0.899,0.899,0.8977,0.8973,0.8967,0.8957,0.8959,0.895,0.8947,0.8937,0.8935,0.8919,0.8916,0.8914,0.8913,0.8913,0.8913,0.8909,0.891,0.8913,0.8914,0.8914,0.8914,0,0.9005,0.9003,0.899,0.8984,0.8982,0.8972,0.8967,0.8958,0.8956,0.8943,0.894,0.8936,0.8924,0.892,0.8906,0.8904,0.8885,0.8886,0.8888,0.8888,0.8876,0.8877,0.8842,0.8837,0.8867,0.8867,0.8867,0,0.8992,0.8983,0.8976,0.8971,0.8967,0.8957,0.8951,0.895,0.8944,0.8934,0.8926,0.8915,0.8905,0.8885,0.888,0.8868,0.8868,0.8857,0.8867,0.8866,0.8867,0.8867,0.8865,0.8855,0.8855,0.8854,0.8854,0,0.8968,0.8968,0.896,0.8951,0.8944,0.8936,0.8929,0.8924,0.8922,0.8914,0.8902,0.8895,0.888,0.8867,0.8855,0.885,0.8851,0.8851,0.8848,0.8847,0.8848,0.8846,0.8882,0.8852,0.8852,0.8852,0.8852,0.8852,0.8951,0.8943,0.8937,0.8927,0.8922,0.8915,0.8907,0.8903,0.8894,0.8882,0.8882,0.8868,0.886,0.8844,0.8838,0.8826,0.8829,0.8825,0.8823,0.8822,0.882,0.8851,0.8824,0.8824,0.8824,0.8824,0.8824,0,0.8927,0.8923,0.8914,0.8905,0.8896,0.8899,0.8891,0.8884,0.8873,0.8865,0.8856,0.8841,0.8829,0.8822,0.881,0.8801,0.8801,0.8798,0.8798,0.8797,0.8819,0.8823,0.8798,0.8798,0.8798,0.8798,0.8798,0.8798,0.8913,0.89,0.8898,0.8882,0.8877,0.8865,0.886,0.8853,0.8847,0.8831,0.8821,0.8818,0.881,0.8796,0.8785,0.8783,0.8777,0.8774,0.8772,0.8793,0.8795,0.8798,0.8801,0.8773,0.8773,0.875,0.875,0.875]}]]